星链-2270 (STARLINK-2270 )

导读 | 星芒AI

STARLINK-2270 是 SpaceX 星链计划中的一颗低轨道通信卫星,属于第二代星链卫星群。该卫星旨在提升全球互联网覆盖,特别是偏远地区的网络接入能力。它采用先进推进系统和激光通信技术,以增强数据传输效率和卫星间通信能力。作为星链计划的重要组成部分,STARLINK-2270 有助于构建更快速、更稳定的全球宽带网络。

基本信息
目录编号:
48000
目录名称:
STARLINK-2270
国际标识:
2021-024Z
轨道中心:
EARTH
卫星名称:
星链-2270
卫星全名:
星链-2270 (STARLINK-2270 )
卫星状态:
在轨 (已飞行1728 天)
发射日期:
2021-03-24 UTC
国别 :
美国 (US)
星等 :
--
轨道信息
数据来源 国际轨道数据 AOE轨道数据
星历时间 2025-12-16T11:18:27+0800
20小时前
查看轨道信息
2025-12-11T17:00:00+0800
5天前
查看轨道信息
半长轴 6925.368km 6925.365km
偏心率 0.0001047 0.000148
轨道倾角 53.055° 53.053°
近地点辐角 74.466° 88.442°
升交点赤经 256.900° 278.282°
平近点角 285.644° 348.472°
近地点 546.507km 546.205km
远地点 547.959km 548.255km
周期 95.593分钟 95.592分钟
每日圈数 15.063939 15.063947
详细信息
固有亮度:
5
最大亮度:
2.5
卫星平台:
Starlink V1.0
覆盖范围:
全球
运营商:
太空探索技术公司
运营商所在国:
美国
制造商(研发单位):
太空探索技术公司
制造商所在国:
美国
使用方式:
暂无
卫星简介
星链(Starlink)计划是由太空探索技术公司(SpaceX)提出的一个巨型低轨卫星互联网星座项目,计划在2019年至2024年间在太空搭建由约1.2万颗卫星组成的“星链”网络,其中1584颗将部署在地球上空550千米处的近地轨道,并从2020年开始工作。该卫星仍在工作。
2D轨道图
3D轨道图
轨道高度分析图
轨道倾角分析图
轨道综合分析图
查看轨道综合分析图